| time (UTC) | temp C | wind direction | speed KPH | gust KPH | rain 1hr cm | rain 24hr cm | rain mn cm | humidity % | barometer mb |
| 20260503050052 | 14 | 0 | 0.0 | 0.0 | 0.00 | 0.00 | 0.00 | 82 | 1021.1 |
| 20260503044622 | 14 | 0 | 0.0 | 0.0 | 0.00 | 0.00 | 0.00 | 80 | 1020.9 |
| 20260503043051 | 15 | 0 | 0.0 | 0.0 | 0.00 | 0.00 | 0.00 | 78 | 1021.0 |
| 20260503041554 | 15 | 0 | 0.0 | 0.0 | 0.00 | 0.00 | 0.00 | 74 | 1021.1 |
| 20260503040058 | 15 | 0 | 0.0 | 0.0 | 0.00 | 0.00 | 0.00 | 74 | 1021.0 |
| 20260503034558 | 16 | 0 | 0.0 | 0.0 | 0.00 | 0.03 | 0.00 | 72 | 1020.9 |
| 20260503033055 | 16 | 0 | 0.0 | 0.0 | 0.00 | 0.03 | 0.00 | 71 | 1020.7 |
| 20260503031553 | 17 | 0 | 0.0 | 3.2 | 0.00 | 0.03 | 0.00 | 69 | 1020.5 |
| 20260503030104 | 16 | 0 | 0.0 | 0.0 | 0.00 | 0.03 | 0.00 | 69 | 1020.6 |
| 20260503024600 | 17 | 0 | 0.0 | 0.0 | 0.00 | 0.25 | 0.00 | 68 | 1020.6 |
| 20260503023100 | 16 | 0 | 0.0 | 0.0 | 0.00 | 0.25 | 0.00 | 68 | 1020.5 |
| 20260503021558 | 17 | 0 | 0.0 | 3.2 | 0.00 | 0.25 | 0.00 | 64 | 1020.3 |
| 20260503014557 | 17 | 0 | 0.0 | 0.0 | 0.00 | 0.38 | 0.00 | 62 | 1020.1 |
| 20260503013112 | 18 | 0 | 0.0 | 0.0 | 0.00 | 0.38 | 0.00 | 57 | 1019.8 |
| 20260503011555 | 20 | 0 | 0.0 | 3.2 | 0.00 | 0.38 | 0.00 | 55 | 1019.8 |
| 20260503010051 | 21 | 9 | 3.2 | 6.4 | 0.00 | 0.38 | 0.00 | 51 | 1019.6 |
| 20260503004603 | 21 | 44 | 4.8 | 8.0 | 0.00 | 0.89 | 0.00 | 50 | 1019.4 |
| 20260503003054 | 22 | 34 | 4.8 | 12.9 | 0.00 | 0.89 | 0.00 | 47 | 1019.2 |
| 20260503001557 | 22 | 18 | 4.8 | 14.5 | 0.00 | 0.89 | 0.00 | 46 | 1019.1 |
| 20260503000103 | 23 | 29 | 9.7 | 19.3 | 0.00 | 0.89 | 0.00 | 44 | 1018.9 |
| 20260502234610 | 23 | 26 | 6.4 | 16.1 | 0.00 | 1.12 | 0.00 | 44 | 1018.9 |
| 20260502233055 | 23 | 23 | 8.0 | 25.7 | 0.00 | 1.12 | 0.00 | 42 | 1018.8 |
| 20260502231555 | 23 | 13 | 11.3 | 17.7 | 0.00 | 1.12 | 0.00 | 40 | 1018.6 |
| 20260502230055 | 23 | 352 | 9.7 | 22.5 | 0.00 | 1.12 | 0.00 | 42 | 1018.6 |
| 20260502224555 | 24 | 9 | 6.4 | 20.9 | 0.00 | 1.17 | 0.00 | 45 | 1018.4 |
| 20260502223102 | 23 | 22 | 12.9 | 20.9 | 0.00 | 1.17 | 0.00 | 41 | 1018.6 |
| 20260502221600 | 24 | 55 | 11.3 | 20.9 | 0.00 | 1.17 | 0.00 | 41 | 1018.6 |
| 20260502214613 | 24 | 53 | 9.7 | 20.9 | 0.00 | 1.93 | 0.00 | 41 | 1018.6 |
| 20260502213118 | 23 | 83 | 16.1 | 25.7 | 0.00 | 1.93 | 0.00 | 41 | 1018.6 |
| 20260502211557 | 24 | 34 | 12.9 | 25.7 | 0.00 | 1.93 | 0.00 | 43 | 1018.6 |
| 20260502210056 | 24 | 29 | 12.9 | 20.9 | 0.00 | 1.93 | 0.00 | 42 | 1018.6 |
| 20260502204555 | 23 | 32 | 12.9 | 25.7 | 0.00 | 3.05 | 0.00 | 41 | 1018.7 |
| 20260502203113 | 23 | 34 | 11.3 | 27.4 | 0.00 | 3.05 | 0.00 | 46 | 1018.9 |
| 20260502201556 | 23 | 352 | 12.9 | 25.7 | 0.00 | 3.05 | 0.00 | 42 | 1019.3 |
| 20260502200059 | 23 | 352 | 12.9 | 27.4 | 0.00 | 3.05 | 0.00 | 43 | 1019.5 |
| 20260502194558 | 23 | 28 | 8.0 | 24.1 | 0.00 | 4.60 | 0.00 | 47 | 1019.6 |
| 20260502193057 | 23 | 36 | 14.5 | 29.0 | 0.00 | 4.60 | 0.00 | 48 | 1019.9 |
| 20260502191601 | 23 | 30 | 11.3 | 30.6 | 0.00 | 4.60 | 0.00 | 47 | 1020.0 |
| 20260502190055 | 22 | 35 | 14.5 | 27.4 | 0.00 | 4.60 | 0.00 | 50 | 1020.0 |
| 20260502184554 | 22 | 34 | 14.5 | 24.1 | 0.00 | 4.62 | 0.00 | 48 | 1020.5 |
| 20260502183104 | 22 | 40 | 9.7 | 24.1 | 0.00 | 4.62 | 0.00 | 50 | 1020.6 |
| 20260502181552 | 22 | 30 | 11.3 | 22.5 | 0.00 | 4.62 | 0.00 | 50 | 1020.8 |
| 20260502163109 | 20 | 17 | 11.3 | 20.9 | 0.00 | 6.83 | 0.00 | 63 | 1020.9 |
| 20260502161620 | 20 | 360 | 14.5 | 22.5 | 0.00 | 6.83 | 0.00 | 64 | 1020.8 |
| 20260502151558 | 18 | 55 | 14.5 | 25.7 | 0.00 | 6.91 | 0.00 | 70 | 1020.8 |
| 20260502130107 | 13 | 46 | 9.7 | 17.7 | 0.00 | 7.04 | 0.00 | 88 | 1019.7 |
| 20260502123115 | 12 | 18 | 4.8 | 16.1 | 0.00 | 7.26 | 0.00 | 88 | 1019.3 |
| 20260502121559 | 12 | 19 | 8.0 | 14.5 | 0.00 | 7.26 | 0.00 | 88 | 1018.8 |
| 20260502120110 | 12 | 13 | 8.0 | 17.7 | 0.00 | 7.26 | 0.00 | 88 | 1018.6 |
| 20260502114553 | 12 | 352 | 8.0 | 19.3 | 0.00 | 7.26 | 0.00 | 88 | 1018.5 |
| 20260502113116 | 12 | 34 | 8.0 | 16.1 | 0.00 | 7.26 | 0.00 | 87 | 1018.3 |
| 20260502111558 | 12 | 10 | 6.4 | 16.1 | 0.00 | 7.26 | 0.00 | 86 | 1018.2 |
| 20260502110059 | 12 | 36 | 6.4 | 12.9 | 0.00 | 7.26 | 0.00 | 86 | 1017.9 |
| 20260502104555 | 12 | 10 | 4.8 | 9.7 | 0.00 | 7.26 | 0.00 | 86 | 1017.8 |
| 20260502103100 | 12 | 13 | 6.4 | 9.7 | 0.00 | 7.26 | 0.00 | 86 | 1017.4 |
| 20260502101602 | 12 | 11 | 4.8 | 8.0 | 0.00 | 7.26 | 0.00 | 86 | 1017.1 |
| 20260502100103 | 12 | 29 | 6.4 | 14.5 | 0.00 | 7.26 | 0.00 | 86 | 1016.7 |
| 20260502090103 | 12 | 54 | 8.0 | 19.3 | 0.00 | 7.26 | 0.00 | 87 | 1016.2 |
| 20260502070110 | 13 | 30 | 9.7 | 16.1 | 0.00 | 7.26 | 0.00 | 90 | 1016.1 |
| 20260502064559 | 13 | 25 | 8.0 | 16.1 | 0.00 | 7.26 | 0.00 | 90 | 1016.0 |
| 20260502063101 | 13 | 30 | 8.0 | 16.1 | 0.00 | 7.26 | 0.00 | 90 | 1015.9 |
| 20260502061558 | 13 | 32 | 8.0 | 27.4 | 0.00 | 7.26 | 0.00 | 90 | 1015.8 |
| 20260502060058 | 13 | 49 | 11.3 | 24.1 | 0.00 | 7.26 | 0.00 | 91 | 1015.8 |
| 20260502054558 | 13 | 26 | 11.3 | 25.7 | 0.00 | 7.26 | 0.00 | 91 | 1015.9 |
| 20260502053059 | 13 | 32 | 8.0 | 20.9 | 0.00 | 7.26 | 0.00 | 91 | 1016.2 |
| 20260502051603 | 13 | 32 | 9.7 | 27.4 | 0.00 | 7.26 | 0.00 | 91 | 1016.3 |